#timestamp,LO_Frequency,Hit,StdDev 
1596783615.4,286046999.9,N
1596783635.2,286047002.3,N
1596783655.0,286047002.3,N
1596783655.9,286047002.3,N
1596783675.8,286047000.4,N
1596783695.6,286047001.0,N
1596783716.1,286047000.3,N
1596783735.0,286047002.8,N
1596783735.9,286047002.8,N
1596783755.8,286046999.9,N
1596783775.6,286047002.6,N
1596783795.4,286047002.2,N
1596783815.3,286047002.6,N
1596783835.1,286046999.7,N
1596783855.8,286046999.9,N
1596783875.7,286047002.7,N
1596783895.5,286047000.1,N
1596783915.4,286047000.9,N
1596783935.2,286047000.9,N
1596783955.0,286047000.4,N
1596783955.9,286047000.4,N
1596783975.8,286047000.1,N
1596783995.6,286047002.8,N
1596784015.4,286046999.7,N
1596784035.3,286046999.9,N
1596784055.1,286047000.9,N
1596784075.9,286047000.1,N
1596784095.7,286046999.8,N
1596784115.5,286047002.6,N
1596784135.4,286047002.1,N
1596784155.2,286047001.8,N
1596784175.1,286047002.1,N
1596784176.0,286047002.1,N
1596784195.8,286047002.7,N
1596784215.6,286047001.4,N
1596784235.5,286047001.6,N
1596784255.3,286047002.6,N
1596784275.1,286047000.0,N
1596784295.9,286046999.7,N
1596784315.7,286046999.8,N
1596784335.6,286047002.5,N
1596784355.4,286047002.1,N
1596784375.2,286047002.0,N
1596784395.1,286047001.8,N
1596784396.0,286047001.8,N
1596784415.8,286047001.6,N
1596784435.7,286047002.5,N
1596784455.5,286047002.6,N
1596784475.3,286046999.8,N
1596784495.2,286047000.1,N
1596784515.0,286047000.1,N
1596784515.9,286047000.1,N
1596784535.7,286046999.8,N
1596784555.6,286047002.6,N
1596784575.4,286047002.8,N
1596784595.3,286047002.4,N
1596784615.1,286047002.7,N
1596784616.0,286047002.7,N
1596784635.8,286047002.3,N
1596784655.7,286047001.5,N
1596784675.5,286047001.3,N
1596784695.4,286047003.7,Y
1596784715.2,286047002.6,P
1596784735.0,286047002.3,P
1596784735.9,286047002.3,P
1596784755.8,286047000.9,N
1596784775.6,286047000.4,N
1596784795.4,286047000.5,N
1596784815.3,286047000.8,N
1596784835.1,286047000.8,N
1596784855.9,286046998.2,N
1596784875.7,286047001.2,N
1596784895.5,286047001.2,N
1596784915.4,286047000.8,N
1596784935.2,286047001.2,N
1596784955.1,286046998.1,N
1596784956.0,286046998.1,N
1596784975.8,286046998.6,N
1596784995.6,286046998.9,N
1596785015.5,286046998.9,N
1596785035.3,286046998.6,N
1596785055.1,286047000.8,N
1596785075.9,286047001.2,N
1596785095.7,286046998.7,N
1596785115.6,286047001.2,N
1596785135.4,286046998.1,N
1596785155.2,286047001.2,N
1596785175.1,286047002.8,N
1596785176.0,286047002.8,N
1596785195.8,286047000.2,N
1596785215.7,286047000.6,N
1596785235.5,286047000.9,N
1596785255.3,286047000.1,N
1596785275.2,286047000.9,N
1596785295.0,286047001.1,N
1596785295.9,286047001.1,N
1596785315.7,286046998.8,N
1596785335.6,286046999.3,N
1596785355.4,286046998.7,N
1596785375.3,286046998.8,N
1596785395.1,286046998.6,N
1596785396.0,286046998.6,N
1596785415.8,286046998.3,N
1596785435.7,286046998.5,N
1596785455.5,286046998.1,N
1596785475.4,286047001.2,N
1596785495.2,286046998.7,N
1596785515.0,286046998.4,N
1596785515.9,286046998.4,N
1596785535.8,286046998.3,N
1596785555.6,286046998.6,N
1596785575.4,286046998.7,N
1596785595.3,286046999.0,N
1596785615.1,286046999.5,N
1596785635.9,286046996.6,N
1596785655.7,286046999.5,N
1596785675.5,286046999.3,N
1596785695.4,286046996.7,N
1596785715.2,286046997.3,N
1596785735.1,286046997.7,N
1596785736.0,286046997.7,N
1596785755.8,286046996.5,N
1596785775.0,286046997.4,N
1596785775.9,286046997.4,N
1596785795.8,286046995.2,Y
1596785815.6,286046997.7,P
1596785835.5,286046996.8,P
1596785855.3,286046997.4,P
1596785875.1,286046996.5,Y
1596785895.9,286046998.5,P
1596785915.7,286047000.1,N
1596785935.5,286047001.2,N
1596785955.4,286046998.8,N
1596785975.2,286046999.5,N
1596785995.1,286046998.4,N
1596785996.0,286046998.4,N
1596786015.8,286046999.8,N
1596786035.6,286046999.8,N
1596786055.5,286047000.7,N
1596786075.3,286046998.4,N
1596786095.2,286046998.7,N
1596786115.9,286046997.3,N
1596786135.7,286046997.7,N
1596786155.6,286046997.0,N
1596786175.4,286046997.2,N
1596786195.2,286046998.0,N
1596786215.1,286046997.5,N
1596786216.0,286046997.5,N
1596786235.8,286046997.7,N
1596786255.7,286046997.3,N
1596786275.5,286046998.0,N
1596786295.3,286046997.9,N
1596786315.2,286046996.6,Y
1596786335.0,286046998.9,P
1596786335.9,286046998.9,P
1596786355.8,286046999.6,N
1596786375.6,286046998.9,N
1596786395.4,286046999.6,N
1596786415.3,286046999.4,N
1596786435.1,286046998.8,Y
1596786455.9,286046998.2,P
1596786475.7,286046998.3,P
1596786495.5,286046998.8,P
1596786515.4,286046999.3,N
1596786535.2,286046999.3,N
1596786555.0,286046998.2,Y
1596786555.9,286046998.2,P
1596786575.8,286046998.6,P
1596786595.6,286046999.2,P
1596786615.5,286046999.4,N
1596786635.3,286046997.0,Y
1596786655.1,286046998.8,P
1596786675.9,286046999.3,P
1596786695.7,286047001.2,P
1596786715.6,286046999.0,N
1596786735.4,286046999.0,N
1596786755.2,286046999.5,N
1596786775.1,286046999.4,N
1596786776.0,286046999.4,N
1596786795.8,286046997.8,Y
1596786815.7,286046997.2,P
1596786835.5,286046998.8,N
1596786855.3,286046998.7,N
1596786875.2,286046998.7,N
1596786895.0,286046998.6,N
1596786895.9,286046998.6,N
1596786915.7,286046998.5,N
1596786935.6,286046998.8,N
1596786955.4,286047000.6,N
1596786975.3,286046998.1,N
1596786995.1,286047001.4,N
1596786996.0,286047001.4,N
1596787015.8,286047002.3,N
1596787035.7,286047000.4,N
1596787055.5,286047000.9,N
1596787075.4,286047000.9,N
1596787095.2,286047000.3,N
1596787115.0,286047000.6,N
1596787115.9,286047000.6,N
1596787135.8,286046999.9,N
1596787155.6,286047001.1,N
1596787175.5,286046999.2,N
1596787195.3,286047000.5,N
